Location: Fairmont
(43.6520°N, 94.4610°W)
Time: 16:32:36
(UTC-05:00)

Cosmos-2242 - Visible Passes

Search period start: 26 April 2017 00:00
Search period end: 06 May 2017 00:00
Orbit: 593 x 617 km, 82.5° (Epoch: 25 April)

Date Brightness Start Highest point End Pass type
(mag) Time Alt. Az. Time Alt. Az. Time Alt. Az.
26 Apr 4.8 03:46:44 10° N 03:50:41 31° ENE 03:54:37 10° SE visible
26 Apr 4.3 05:24:36 10° NW 05:28:05 23° W 05:31:33 10° SW visible
27 Apr 3.8 03:59:28 10° N 04:03:48 52° ENE 04:07:26 14° SSE visible
27 Apr 4.8 05:38:29 10° NW 05:40:53 14° W 05:43:15 10° WSW visible
28 Apr 3.0 04:12:23 10° N 04:16:50 87° E 04:19:40 22° S visible
29 Apr 5.8 02:49:23 10° NE 02:51:50 14° ENE 02:54:16 10° ESE visible
29 Apr 3.1 04:25:29 10° NNW 04:29:48 55° W 04:32:00 26° SSW visible
30 Apr 5.2 03:01:33 10° NNE 03:05:03 23° ENE 03:07:34 14° ESE visible
30 Apr 3.8 04:38:44 10° NNW 04:42:42 33° W 04:44:24 24° SW visible
01 May 4.4 03:14:07 10° N 03:18:12 36° ENE 03:20:02 25° ESE visible
01 May 4.5 04:52:17 10° NW 04:55:31 20° W 04:56:52 18° WSW visible
02 May 3.4 03:26:55 10° N 03:31:17 60° E 03:32:33 42° SE visible
02 May 5.0 05:06:26 10° WNW 05:08:17 12° W 05:09:23 12° W visible
03 May 6.0 02:05:35 10° ENE 02:06:05 10° ENE 02:06:35 10° ENE visible
03 May 2.9 03:39:53 10° N 03:44:17 81° W 03:45:06 58° S visible
04 May 5.4 02:16:34 10° NNE 02:19:22 16° ENE 02:20:52 14° E visible
04 May 3.3 03:53:00 10° NNW 03:57:14 47° W 03:57:42 45° WSW visible
05 May 4.8 02:28:53 10° NNE 02:32:34 26° ENE 02:33:29 24° E visible
05 May 4.0 04:06:20 10° NNW 04:10:06 28° W 04:10:19 28° W visible
